GW1838 Weather Reports


time (UTC)temp
C
wind
direction
speed
KPH
gust
KPH
rain 1hr
cm
rain 24hr
cm
rain mn
cm
humidity
%
barometer
mb
20260506004305 15 197 25.7 37.0 0.00 0.00 0.00 82 1011.4
20260506003804 15 204 22.5 46.7 0.00 0.00 0.00 82 1011.4
20260506003305 15 206 25.7 41.8 0.00 0.00 0.00 82 1011.5
20260506002805 15 200 25.7 38.6 0.00 0.00 0.00 82 1011.5
20260506001304 15 186 25.7 33.8 0.00 0.00 0.00 82 1011.2
20260506000804 15 211 20.9 40.2 0.00 0.00 0.00 81 1011.3
20260505235305 15 216 20.9 40.2 0.00 0.00 0.00 81 1011.1
20260505234305 15 228 20.9 37.0 0.00 0.00 0.00 79 1011.1
20260505233805 15 194 25.7 51.5 0.00 0.00 0.00 79 1011.1
20260505231804 16 208 20.9 35.4 0.00 0.00 0.00 76 1011.0
20260505230305 16 206 22.5 38.6 0.00 0.00 0.00 77 1010.9
20260505225306 16 210 24.1 37.0 0.00 0.00 0.00 77 1010.5
20260505224804 16 201 24.1 40.2 0.00 0.00 0.00 77 1010.6
20260505224305 16 203 24.1 46.7 0.00 0.00 0.00 76 1010.5
20260505222306 17 208 20.9 33.8 0.00 0.00 0.00 74 1010.5
20260505220805 17 205 12.9 32.2 0.00 0.00 0.00 74 1010.5
20260505214805 16 204 25.7 51.5 0.00 0.00 0.00 75 1010.3
20260505205804 16 219 27.4 40.2 0.00 0.00 0.00 75 1009.9
20260505205305 16 183 27.4 46.7 0.00 0.00 0.00 76 1009.9
20260505204804 16 195 25.7 37.0 0.00 0.00 0.00 76 1009.9
20260505204304 16 208 22.5 41.8 0.00 0.00 0.00 76 1009.9
20260505202804 16 203 19.3 37.0 0.00 0.00 0.00 78 1009.9
20260505202306 16 219 19.3 38.6 0.00 0.00 0.00 79 1009.9
20260505201804 15 192 22.5 38.6 0.00 0.00 0.00 78 1009.9
20260505200305 15 210 22.5 37.0 0.00 0.00 0.00 79 1009.9
20260505195305 15 197 25.7 33.8 0.00 0.00 0.00 79 1010.1
20260505194304 15 201 27.4 41.8 0.00 0.00 0.00 78 1010.2
20260505193804 16 215 24.1 37.0 0.00 0.00 0.00 78 1010.2
20260505193304 16 211 20.9 38.6 0.00 0.00 0.00 78 1010.3
20260505192805 16 210 25.7 40.2 0.00 0.00 0.00 78 1010.5
20260505192305 16 211 16.1 32.2 0.00 0.00 0.00 79 1010.6
20260505191805 15 193 20.9 41.8 0.00 0.00 0.00 80 1010.6
20260505190304 15 193 19.3 32.2 0.00 0.00 0.00 80 1010.6
20260505185804 15 195 22.5 35.4 0.00 0.00 0.00 80 1010.6
20260505184805 15 192 19.3 33.8 0.00 0.00 0.00 79 1010.7
20260505183805 15 202 20.9 32.2 0.00 0.00 0.00 79 1010.7
20260505182306 15 201 20.9 38.6 0.00 0.00 0.00 79 1010.8
20260505181305 15 192 19.3 32.2 0.00 0.00 0.00 79 1011.0
20260505180804 15 197 17.7 37.0 0.00 0.00 0.00 80 1011.0
20260505173805 15 201 17.7 32.2 0.00 0.00 0.00 80 1011.2
20260505172306 15 192 17.7 29.0 0.00 0.00 0.00 81 1011.1
20260505171304 15 195 22.5 37.0 0.00 0.00 0.00 81 1011.1
20260505170304 15 195 20.9 33.8 0.00 0.00 0.00 81 1010.9
20260505165804 15 198 19.3 32.2 0.00 0.00 0.00 81 1011.0
20260505164804 15 206 17.7 32.2 0.00 0.00 0.00 80 1011.1
20260505163304 15 209 19.3 33.8 0.00 0.00 0.00 81 1011.4
20260505162804 15 213 17.7 27.4 0.00 0.00 0.00 81 1011.5
20260505152804 14 202 19.3 29.0 0.00 0.00 0.00 83 1011.7
20260505150805 14 226 16.1 35.4 0.00 0.00 0.00 83 1011.8
20260505150304 14 203 20.9 38.6 0.00 0.00 0.00 83 1011.8
20260505123304 15 201 11.3 19.3 0.00 0.00 0.00 84 1011.5
20260505122805 15 222 9.7 16.1 0.00 0.00 0.00 85 1011.5
20260505122305 14 206 8.0 19.3 0.00 0.00 0.00 85 1011.4
20260505121304 14 197 8.0 19.3 0.00 0.00 0.00 88 1011.4
20260505120806 13 193 8.0 16.1 0.00 0.00 0.00 88 1011.4
20260505115804 13 201 12.9 20.9 0.00 0.00 0.00 87 1011.4
20260505114304 13 213 11.3 24.1 0.00 0.00 0.00 90 1011.3
20260505113304 12 200 11.3 20.9 0.00 0.00 0.00 90 1011.4
20260505111804 12 194 11.3 24.1 0.00 0.00 0.00 90 1011.3
20260505111304 12 203 14.5 25.7 0.00 0.00 0.00 90 1011.3
20260505110804 12 205 14.5 29.0 0.00 0.00 0.00 90 1011.4
20260505110304 12 198 11.3 20.9 0.00 0.00 0.00 89 1011.3
20260505101807 12 207 8.0 11.3 0.00 0.00 0.00 89 1011.0
20260505095807 13 219 8.0 11.3 0.00 0.00 0.00 90 1010.8
20260505095307 13 216 9.7 16.1 0.00 0.00 0.00 90 1010.8
20260505094807 13 208 8.0 16.1 0.00 0.00 0.00 90 1010.7
20260505092307 13 223 9.7 19.3 0.00 0.00 0.00 90 1010.6
20260505091807 13 226 9.7 19.3 0.00 0.00 0.00 90 1010.6
20260505085307 13 211 11.3 20.9 0.00 0.00 0.00 90 1010.5
20260505084807 13 203 9.7 22.5 0.00 0.00 0.00 90 1010.5
20260505084307 13 219 9.7 19.3 0.00 0.00 0.00 90 1010.5
20260505082807 13 217 11.3 24.1 0.00 0.00 0.00 89 1010.6
20260505081308 13 215 14.5 22.5 0.00 0.00 0.00 90 1010.4
20260505080807 13 217 14.5 22.5 0.00 0.00 0.00 90 1010.4
20260505074307 13 210 16.1 24.1 0.00 0.00 0.00 91 1010.4
20260505073807 12 206 11.3 16.1 0.00 0.00 0.00 91 1010.4
20260505073306 12 207 11.3 19.3 0.00 0.00 0.00 92 1010.4
20260505072308 12 190 14.5 20.9 0.00 0.00 0.00 91 1010.4
20260505070807 12 206 11.3 16.1 0.00 0.00 0.00 90 1010.3
20260505070307 12 203 9.7 20.9 0.00 0.00 0.00 90 1010.3
20260505064807 13 208 11.3 19.3 0.00 0.00 0.00 90 1010.3
20260505062807 13 213 12.9 24.1 0.00 0.00 0.00 90 1010.3
20260505062307 13 221 9.7 20.9 0.00 0.00 0.00 90 1010.4
20260505061307 13 223 9.7 19.3 0.00 0.00 0.00 90 1010.4
20260505055807 12 216 11.3 19.3 0.00 0.00 0.00 90 1010.5
20260505055308 12 201 14.5 24.1 0.00 0.00 0.00 90 1010.5
20260505054807 12 201 14.5 24.1 0.00 0.00 0.00 90 1010.5
20260505054307 12 192 19.3 25.7 0.00 0.00 0.00 90 1010.7
20260505052807 12 195 17.7 27.4 0.00 0.00 0.00 90 1010.7
20260505052308 12 200 16.1 29.0 0.00 0.00 0.00 90 1010.8
20260505050307 12 200 14.5 22.5 0.00 0.00 0.00 89 1011.0
20260505041307 11 200 9.7 20.9 0.00 0.00 0.00 90 1011.3
20260505040835 11 199 14.5 20.9 0.00 0.00 0.00 90 1011.3
20260505033306 11 191 9.7 22.5 0.00 0.00 0.00 90 1011.3
20260505031307 12 198 14.5 22.5 0.00 0.00 0.00 89 1011.5
20260505030806 12 198 9.7 20.9 0.00 0.00 0.00 89 1011.5
20260505030307 12 193 14.5 22.5 0.00 0.00 0.00 89 1011.5
20260505025807 12 198 14.5 25.7 0.00 0.00 0.00 88 1011.5
20260505025306 12 193 14.5 27.4 0.00 0.00 0.00 87 1011.6
20260505024306 12 197 16.1 29.0 0.00 0.00 0.00 87 1011.5
20260505023807 12 203 14.5 27.4 0.00 0.00 0.00 87 1011.6
20260505021307 13 206 17.7 37.0 0.00 0.00 0.00 85 1011.6
20260505015307 13 206 17.7 25.7 0.00 0.00 0.00 83 1011.5
20260505014307 13 216 14.5 25.7 0.00 0.00 0.00 82 1011.5
20260505013307 13 199 12.9 20.9 0.00 0.00 0.00 83 1011.4
20260505012808 13 186 14.5 20.9 0.00 0.00 0.00 83 1011.4
20260505011806 13 193 11.3 19.3 0.00 0.00 0.00 84 1011.3
20260505010807 13 206 9.7 19.3 0.00 0.00 0.00 82 1011.2
20260505005306 13 209 11.3 22.5 0.00 0.00 0.00 82 1011.0
20260505004806 13 205 9.7 19.3 0.00 0.00 0.00 82 1011.0